Time,TemperatureF,DewpointF,PressureIn,WindDirection,WindDirectionDegrees,WindSpeedMPH,WindSpeedGustMPH,Humidity,HourlyPrecipIn,Conditions,Clouds,dailyrainin,SoftwareType,DateUTC
2013-07-23 00:00:00,69.5,66.8,29.88,South,171,0.0,1.0,91,0.00,,---,0.00,VWS V14.01,2013-07-23 04:00:00,
2013-07-23 00:05:00,69.4,66.7,29.89,South,171,0.0,1.0,91,0.00,,---,0.00,VWS V14.01,2013-07-23 04:05:00,
2013-07-23 00:10:00,69.4,66.7,29.89,South,171,0.0,0.0,91,0.00,,---,0.00,VWS V14.01,2013-07-23 04:10:00,
2013-07-23 00:15:00,69.4,67.0,29.88,South,171,0.0,1.0,92,0.00,,---,0.00,VWS V14.01,2013-07-23 04:15:00,
2013-07-23 00:20:00,69.5,67.1,29.88,South,172,0.0,1.0,92,0.00,,---,0.00,VWS V14.01,2013-07-23 04:20:00,
2013-07-23 00:25:00,69.5,67.1,29.87,South,172,0.0,1.0,92,0.00,,---,0.00,VWS V14.01,2013-07-23 04:25:00,
2013-07-23 00:30:00,69.6,67.2,29.87,South,172,0.0,0.0,92,0.00,,---,0.00,VWS V14.01,2013-07-23 04:30:00,
2013-07-23 00:35:00,69.5,67.1,29.87,South,172,0.0,1.0,92,0.00,,---,0.00,VWS V14.01,2013-07-23 04:35:00,
2013-07-23 00:40:00,69.5,67.1,29.87,South,172,0.0,0.0,92,0.00,,---,0.00,VWS V14.01,2013-07-23 04:40:00,
2013-07-23 00:45:00,69.5,67.1,29.86,South,172,0.0,1.0,92,0.00,,---,0.00,VWS V14.01,2013-07-23 04:45:00,
2013-07-23 00:50:00,69.5,67.1,29.86,South,172,0.0,0.0,92,0.00,,---,0.00,VWS V14.01,2013-07-23 04:50:00,
2013-07-23 00:55:00,69.5,67.1,29.86,South,172,0.0,0.0,92,0.00,,---,0.00,VWS V14.01,2013-07-23 04:55:00,
2013-07-23 01:00:00,69.5,67.1,29.86,South,172,0.0,0.0,92,0.00,,---,0.00,VWS V14.01,2013-07-23 05:00:00,
2013-07-23 01:05:00,69.5,67.4,29.86,South,172,0.0,0.0,93,0.00,,---,0.00,VWS V14.01,2013-07-23 05:05:00,
2013-07-23 01:10:00,69.5,67.4,29.85,South,172,0.0,1.0,93,0.00,,---,0.00,VWS V14.01,2013-07-23 05:10:00,
2013-07-23 01:15:00,69.5,67.7,29.85,South,172,0.0,0.0,94,0.00,,---,0.00,VWS V14.01,2013-07-23 05:15:00,
2013-07-23 01:20:00,69.5,67.7,29.85,South,172,0.0,2.0,94,0.00,,---,0.00,VWS V14.01,2013-07-23 05:20:00,
2013-07-23 01:25:00,69.5,67.7,29.85,South,172,0.0,1.0,94,0.00,,---,0.00,VWS V14.01,2013-07-23 05:25:00,
2013-07-23 01:30:00,69.5,68.0,29.84,South,172,0.0,1.0,95,0.00,,---,0.00,VWS V14.01,2013-07-23 05:30:00,
2013-07-23 01:35:00,69.5,68.0,29.84,WSW,243,0.0,1.0,95,0.00,,---,0.00,VWS V14.01,2013-07-23 05:35:00,
2013-07-23 01:40:00,69.4,67.9,29.84,WSW,243,0.0,0.0,95,0.00,,---,0.00,VWS V14.01,2013-07-23 05:40:00,
2013-07-23 01:45:00,69.5,68.0,29.84,WSW,243,0.0,0.0,95,0.00,,---,0.00,VWS V14.01,2013-07-23 05:45:00,
2013-07-23 01:50:00,69.4,67.9,29.84,North,5,0.0,2.0,95,0.00,,---,0.00,VWS V14.01,2013-07-23 05:50:00,
2013-07-23 01:55:00,69.4,67.9,29.83,North,5,0.0,1.0,95,0.00,,---,0.00,VWS V14.01,2013-07-23 05:55:00,
2013-07-23 02:00:00,69.4,67.9,29.83,North,5,0.0,0.0,95,0.00,,---,0.00,VWS V14.01,2013-07-23 06:00:00,
2013-07-23 02:05:00,69.3,67.8,29.83,North,5,0.0,1.0,95,0.00,,---,0.00,VWS V14.01,2013-07-23 06:05:00,
2013-07-23 02:10:00,69.3,67.8,29.83,SE,133,0.0,1.0,95,0.00,,---,0.00,VWS V14.01,2013-07-23 06:10:00,
2013-07-23 02:15:00,69.2,68.0,29.82,SE,133,0.0,0.0,96,0.00,,---,0.00,VWS V14.01,2013-07-23 06:15:00,
2013-07-23 02:20:00,69.2,68.0,29.83,SE,133,0.0,0.0,96,0.00,,---,0.00,VWS V14.01,2013-07-23 06:20:00,
2013-07-23 02:25:00,69.3,68.1,29.82,SE,133,0.0,0.0,96,0.00,,---,0.00,VWS V14.01,2013-07-23 06:25:00,
2013-07-23 02:30:00,69.3,68.1,29.82,SE,133,0.0,1.0,96,0.00,,---,0.00,VWS V14.01,2013-07-23 06:30:00,
2013-07-23 02:35:00,69.2,68.0,29.82,SE,132,0.0,1.0,96,0.00,,---,0.00,VWS V14.01,2013-07-23 06:35:00,
2013-07-23 02:40:00,69.2,68.0,29.82,SE,132,0.0,1.0,96,0.00,,---,0.00,VWS V14.01,2013-07-23 06:40:00,
2013-07-23 02:45:00,69.2,68.0,29.82,SE,132,0.0,1.0,96,0.00,,---,0.00,VWS V14.01,2013-07-23 06:45:00,
2013-07-23 02:50:00,69.2,68.0,29.81,SE,132,1.0,1.0,96,0.00,,---,0.00,VWS V14.01,2013-07-23 06:50:00,
2013-07-23 02:55:00,69.2,68.0,29.81,SSW,193,0.0,3.0,96,0.00,,---,0.00,VWS V14.01,2013-07-23 06:55:00,
2013-07-23 03:00:00,69.2,68.0,29.81,SSW,193,0.0,0.0,96,0.00,,---,0.00,VWS V14.01,2013-07-23 07:00:00,
2013-07-23 03:05:00,69.2,68.0,29.80,SSW,193,0.0,1.0,96,0.00,,---,0.00,VWS V14.01,2013-07-23 07:05:00,
2013-07-23 03:10:00,69.2,68.0,29.80,SSW,193,0.0,0.0,96,0.00,,---,0.00,VWS V14.01,2013-07-23 07:10:00,
2013-07-23 03:15:00,69.3,68.4,29.80,SSW,193,0.0,1.0,97,0.00,,---,0.00,VWS V14.01,2013-07-23 07:15:00,
2013-07-23 03:20:00,69.2,68.3,29.80,SSW,193,0.0,0.0,97,0.00,,---,0.00,VWS V14.01,2013-07-23 07:20:00,
2013-07-23 03:25:00,69.2,68.3,29.79,SSW,193,0.0,1.0,97,0.00,,---,0.00,VWS V14.01,2013-07-23 07:25:00,
2013-07-23 03:30:00,69.2,68.3,29.79,WNW,285,0.0,1.0,97,0.00,,---,0.00,VWS V14.01,2013-07-23 07:30:00,
2013-07-23 03:35:00,69.3,68.4,29.79,WNW,285,0.0,1.0,97,0.00,,---,0.00,VWS V14.01,2013-07-23 07:35:00,
2013-07-23 03:40:00,69.3,68.4,29.78,WNW,285,0.0,0.0,97,0.00,,---,0.00,VWS V14.01,2013-07-23 07:40:00,
2013-07-23 03:45:00,69.3,68.4,29.78,WNW,285,0.0,0.0,97,0.00,,---,0.00,VWS V14.01,2013-07-23 07:45:00,
2013-07-23 03:50:00,69.3,68.4,29.78,West,280,0.0,2.0,97,0.00,,---,0.00,VWS V14.01,2013-07-23 07:50:00,
2013-07-23 03:55:00,69.3,68.4,29.78,SSE,155,0.0,1.0,97,0.00,,---,0.00,VWS V14.01,2013-07-23 07:55:00,
2013-07-23 04:00:00,69.3,68.4,29.78,SSE,155,0.0,1.0,97,0.00,,---,0.00,VWS V14.01,2013-07-23 08:00:00,
2013-07-23 04:05:00,69.2,68.3,29.77,SSE,155,0.0,1.0,97,0.00,,---,0.00,VWS V14.01,2013-07-23 08:05:00,
2013-07-23 04:10:00,69.2,68.3,29.77,SSE,155,0.0,1.0,97,0.00,,---,0.00,VWS V14.01,2013-07-23 08:10:00,
2013-07-23 04:15:00,69.2,68.3,29.77,SE,124,1.0,1.0,97,0.00,,---,0.00,VWS V14.01,2013-07-23 08:15:00,
2013-07-23 04:20:00,69.3,68.4,29.77,SE,124,0.0,1.0,97,0.00,,---,0.00,VWS V14.01,2013-07-23 08:20:00,
2013-07-23 04:25:00,69.3,68.4,29.77,SE,124,0.0,1.0,97,0.00,,---,0.00,VWS V14.01,2013-07-23 08:25:00,
2013-07-23 04:30:00,69.3,68.4,29.77,SE,124,0.0,0.0,97,0.00,,---,0.00,VWS V14.01,2013-07-23 08:30:00,
2013-07-23 04:35:00,69.3,68.4,29.76,SE,124,0.0,1.0,97,0.00,,---,0.00,VWS V14.01,2013-07-23 08:35:00,
2013-07-23 04:40:00,69.3,68.4,29.76,ENE,69,0.0,3.0,97,0.00,,---,0.00,VWS V14.01,2013-07-23 08:40:00,
2013-07-23 04:45:00,69.3,68.4,29.76,ENE,69,0.0,1.0,97,0.00,,---,0.00,VWS V14.01,2013-07-23 08:45:00,
2013-07-23 04:50:00,69.3,68.4,29.76,ENE,75,0.0,1.0,97,0.00,,---,0.00,VWS V14.01,2013-07-23 08:50:00,
2013-07-23 04:55:00,69.3,68.4,29.76,ENE,67,0.0,1.0,97,0.00,,---,0.00,VWS V14.01,2013-07-23 08:55:00,
2013-07-23 05:00:00,69.3,68.4,29.76,North,11,0.0,1.0,97,0.00,,---,0.00,VWS V14.01,2013-07-23 09:00:00,
2013-07-23 05:05:00,69.3,68.4,29.76,North,11,0.0,0.0,97,0.00,,---,0.00,VWS V14.01,2013-07-23 09:05:00,
2013-07-23 05:10:00,69.3,68.4,29.76,NNW,329,0.0,3.0,97,0.00,,---,0.00,VWS V14.01,2013-07-23 09:10:00,
2013-07-23 05:15:00,69.3,68.4,29.75,NNW,329,0.0,1.0,97,0.01,,---,0.01,VWS V14.01,2013-07-23 09:15:00,
2013-07-23 05:20:00,69.2,68.3,29.75,NNW,329,0.0,1.0,97,0.01,,---,0.01,VWS V14.01,2013-07-23 09:20:00,
2013-07-23 05:25:00,69.2,68.3,29.75,WSW,257,0.0,2.0,97,0.01,,---,0.01,VWS V14.01,2013-07-23 09:25:00,
2013-07-23 05:30:00,69.2,68.3,29.75,NE,40,0.0,2.0,97,0.01,,---,0.01,VWS V14.01,2013-07-23 09:30:00,
2013-07-23 05:35:00,69.3,68.4,29.75,NE,40,0.0,1.0,97,0.01,,---,0.01,VWS V14.01,2013-07-23 09:35:00,
2013-07-23 05:40:00,69.3,68.4,29.75,NE,35,0.0,1.0,97,0.01,,---,0.01,VWS V14.01,2013-07-23 09:40:00,
2013-07-23 05:45:00,69.3,68.4,29.75,NE,35,0.0,1.0,97,0.01,,---,0.01,VWS V14.01,2013-07-23 09:45:00,
2013-07-23 05:50:00,69.3,68.4,29.75,ENE,74,0.0,1.0,97,0.01,,---,0.01,VWS V14.01,2013-07-23 09:50:00,
2013-07-23 05:55:00,69.3,68.4,29.74,ENE,74,0.0,0.0,97,0.01,,---,0.01,VWS V14.01,2013-07-23 09:55:00,
2013-07-23 06:00:00,69.3,68.4,29.74,NNW,341,0.0,1.0,97,0.01,,---,0.01,VWS V14.01,2013-07-23 10:00:00,
2013-07-23 06:05:00,69.2,68.3,29.74,NE,53,0.0,2.0,97,0.01,,---,0.01,VWS V14.01,2013-07-23 10:05:00,
2013-07-23 06:10:00,69.2,68.3,29.74,NE,50,0.0,1.0,97,0.01,,---,0.01,VWS V14.01,2013-07-23 10:10:00,
2013-07-23 06:15:00,69.2,68.3,29.74,NE,50,0.0,0.0,97,0.01,,---,0.01,VWS V14.01,2013-07-23 10:15:00,
2013-07-23 06:20:00,69.2,68.3,29.74,NE,50,0.0,0.0,97,0.00,,---,0.01,VWS V14.01,2013-07-23 10:20:00,
2013-07-23 06:25:00,69.2,68.3,29.74,NE,50,0.0,0.0,97,0.00,,---,0.01,VWS V14.01,2013-07-23 10:25:00,
2013-07-23 06:30:00,69.2,68.3,29.74,SSE,152,0.0,1.0,97,0.00,,---,0.01,VWS V14.01,2013-07-23 10:30:00,
2013-07-23 06:35:00,69.3,68.7,29.74,SSE,152,0.0,1.0,98,0.00,,---,0.01,VWS V14.01,2013-07-23 10:35:00,
2013-07-23 06:40:00,69.2,68.3,29.74,South,173,0.0,1.0,97,0.00,,---,0.01,VWS V14.01,2013-07-23 10:40:00,
2013-07-23 06:45:00,69.2,68.3,29.73,South,173,0.0,1.0,97,0.00,,---,0.01,VWS V14.01,2013-07-23 10:45:00,
2013-07-23 06:50:00,69.2,68.3,29.73,South,173,0.0,0.0,97,0.00,,---,0.01,VWS V14.01,2013-07-23 10:50:00,
2013-07-23 06:55:00,69.2,68.3,29.73,West,259,0.0,2.0,97,0.00,,---,0.01,VWS V14.01,2013-07-23 10:55:00,
2013-07-23 07:00:00,69.2,68.6,29.72,NW,305,0.0,2.0,98,0.00,,---,0.01,VWS V14.01,2013-07-23 11:00:00,
2013-07-23 07:05:00,69.3,68.7,29.72,NW,305,0.0,2.0,98,0.01,,---,0.02,VWS V14.01,2013-07-23 11:05:00,
2013-07-23 07:10:00,69.3,68.7,29.72,East,92,0.0,2.0,98,0.01,,---,0.02,VWS V14.01,2013-07-23 11:10:00,
2013-07-23 07:15:00,69.3,68.7,29.72,East,92,0.0,0.0,98,0.01,,---,0.02,VWS V14.01,2013-07-23 11:15:00,
2013-07-23 07:20:00,69.4,68.8,29.72,East,92,0.0,1.0,98,0.01,,---,0.02,VWS V14.01,2013-07-23 11:20:00,
2013-07-23 07:25:00,69.4,68.8,29.72,East,96,0.0,1.0,98,0.01,,---,0.02,VWS V14.01,2013-07-23 11:25:00,
2013-07-23 07:30:00,69.4,68.5,29.72,East,96,0.0,1.0,97,0.01,,---,0.02,VWS V14.01,2013-07-23 11:30:00,
2013-07-23 07:35:00,69.5,68.9,29.72,East,98,0.0,1.0,98,0.01,,---,0.02,VWS V14.01,2013-07-23 11:35:00,
2013-07-23 07:40:00,69.4,68.5,29.71,East,98,0.0,0.0,97,0.01,,---,0.02,VWS V14.01,2013-07-23 11:40:00,
2013-07-23 07:45:00,69.4,68.5,29.71,NW,319,0.0,2.0,97,0.01,,---,0.02,VWS V14.01,2013-07-23 11:45:00,
2013-07-23 07:50:00,69.5,68.9,29.71,NNE,19,0.0,2.0,98,0.01,,---,0.02,VWS V14.01,2013-07-23 11:50:00,
2013-07-23 07:55:00,69.5,68.9,29.70,NNE,19,0.0,1.0,98,0.01,,---,0.02,VWS V14.01,2013-07-23 11:55:00,
2013-07-23 08:00:00,69.6,69.0,29.70,SSE,152,0.0,1.0,98,0.01,,---,0.02,VWS V14.01,2013-07-23 12:00:00,
2013-07-23 08:05:00,69.7,69.1,29.70,SSE,152,0.0,1.0,98,0.01,,---,0.02,VWS V14.01,2013-07-23 12:05:00,
2013-07-23 08:10:00,69.7,69.1,29.69,SSE,152,0.0,1.0,98,0.00,,---,0.02,VWS V14.01,2013-07-23 12:10:00,
2013-07-23 08:15:00,69.8,69.2,29.70,SSW,208,0.0,2.0,98,0.00,,---,0.02,VWS V14.01,2013-07-23 12:15:00,
2013-07-23 08:20:00,69.9,69.3,29.69,SSW,208,0.0,1.0,98,0.00,,---,0.02,VWS V14.01,2013-07-23 12:20:00,
2013-07-23 08:25:00,70.0,69.4,29.69,SSW,208,0.0,1.0,98,0.00,,---,0.02,VWS V14.01,2013-07-23 12:25:00,
2013-07-23 08:30:00,70.1,69.5,29.69,SSW,208,0.0,0.0,98,0.00,,---,0.02,VWS V14.01,2013-07-23 12:30:00,
2013-07-23 08:35:00,70.2,69.6,29.69,SSW,208,0.0,1.0,98,0.00,,---,0.02,VWS V14.01,2013-07-23 12:35:00,
2013-07-23 08:40:00,70.3,69.7,29.68,SSW,208,0.0,0.0,98,0.00,,---,0.02,VWS V14.01,2013-07-23 12:40:00,
2013-07-23 08:45:00,70.3,69.7,29.68,SSW,208,0.0,0.0,98,0.00,,---,0.02,VWS V14.01,2013-07-23 12:45:00,
2013-07-23 08:50:00,70.4,69.8,29.68,SSW,208,0.0,0.0,98,0.00,,---,0.02,VWS V14.01,2013-07-23 12:50:00,
2013-07-23 08:55:00,70.5,69.9,29.68,SSW,208,0.0,1.0,98,0.00,,---,0.02,VWS V14.01,2013-07-23 12:55:00,
2013-07-23 09:00:00,70.6,70.0,29.68,East,82,0.0,1.0,98,0.00,,---,0.02,VWS V14.01,2013-07-23 13:00:00,
2013-07-23 09:05:00,70.6,70.0,29.68,East,82,0.0,1.0,98,0.00,,---,0.02,VWS V14.01,2013-07-23 13:05:00,
2013-07-23 09:10:00,70.9,70.3,29.67,East,82,0.0,0.0,98,0.00,,---,0.02,VWS V14.01,2013-07-23 13:10:00,
2013-07-23 09:15:00,71.0,70.4,29.67,East,82,1.0,1.0,98,0.00,,---,0.02,VWS V14.01,2013-07-23 13:15:00,
2013-07-23 09:20:00,71.0,70.4,29.67,East,81,0.0,1.0,98,0.00,,---,0.02,VWS V14.01,2013-07-23 13:20:00,
2013-07-23 09:25:00,71.1,70.5,29.67,East,81,0.0,0.0,98,0.00,,---,0.02,VWS V14.01,2013-07-23 13:25:00,
2013-07-23 09:30:00,71.3,70.7,29.67,East,81,0.0,0.0,98,0.00,,---,0.02,VWS V14.01,2013-07-23 13:30:00,
2013-07-23 09:35:00,71.5,70.9,29.66,NE,40,1.0,2.0,98,0.00,,---,0.02,VWS V14.01,2013-07-23 13:35:00,
2013-07-23 09:40:00,71.7,71.1,29.66,NE,40,0.0,1.0,98,0.00,,---,0.02,VWS V14.01,2013-07-23 13:40:00,
2013-07-23 09:45:00,71.9,71.3,29.66,NE,40,0.0,0.0,98,0.00,,---,0.02,VWS V14.01,2013-07-23 13:45:00,
2013-07-23 09:50:00,72.1,71.5,29.66,NW,304,0.0,2.0,98,0.00,,---,0.02,VWS V14.01,2013-07-23 13:50:00,
2013-07-23 09:55:00,72.3,71.7,29.66,NW,304,0.0,1.0,98,0.00,,---,0.02,VWS V14.01,2013-07-23 13:55:00,
2013-07-23 10:00:00,72.4,71.8,29.66,NW,304,0.0,1.0,98,0.00,,---,0.02,VWS V14.01,2013-07-23 14:00:00,
2013-07-23 10:05:00,72.6,72.0,29.66,NW,304,0.0,2.0,98,0.00,,---,0.02,VWS V14.01,2013-07-23 14:05:00,
2013-07-23 10:10:00,72.7,72.1,29.65,NW,304,0.0,1.0,98,0.00,,---,0.02,VWS V14.01,2013-07-23 14:10:00,
2013-07-23 10:15:00,73.0,72.4,29.65,NW,304,0.0,1.0,98,0.00,,---,0.02,VWS V14.01,2013-07-23 14:15:00,
2013-07-23 10:20:00,73.1,72.5,29.65,NW,304,0.0,1.0,98,0.00,,---,0.02,VWS V14.01,2013-07-23 14:20:00,
2013-07-23 10:25:00,73.4,72.8,29.64,NW,304,0.0,0.0,98,0.00,,---,0.02,VWS V14.01,2013-07-23 14:25:00,
2013-07-23 10:30:00,73.7,73.1,29.64,NW,304,0.0,0.0,98,0.00,,---,0.02,VWS V14.01,2013-07-23 14:30:00,
2013-07-23 10:35:00,73.7,73.1,29.64,NW,304,0.0,1.0,98,0.00,,---,0.02,VWS V14.01,2013-07-23 14:35:00,
2013-07-23 10:40:00,74.0,73.4,29.63,NW,304,1.0,1.0,98,0.00,,---,0.02,VWS V14.01,2013-07-23 14:40:00,
2013-07-23 10:45:00,74.2,73.6,29.63,NW,304,0.0,1.0,98,0.00,,---,0.02,VWS V14.01,2013-07-23 14:45:00,
2013-07-23 10:50:00,74.7,74.1,29.64,NW,304,0.0,0.0,98,0.00,,---,0.02,VWS V14.01,2013-07-23 14:50:00,
2013-07-23 10:55:00,75.4,74.8,29.64,NW,304,0.0,1.0,98,0.00,,---,0.02,VWS V14.01,2013-07-23 14:55:00,
2013-07-23 11:00:00,75.5,74.9,29.64,West,271,0.0,6.0,98,0.00,,---,0.02,VWS V14.01,2013-07-23 15:00:00,
2013-07-23 11:05:00,75.8,75.2,29.63,West,271,0.0,2.0,98,0.00,,---,0.02,VWS V14.01,2013-07-23 15:05:00,
2013-07-23 11:10:00,76.4,75.8,29.63,NE,53,0.0,2.0,98,0.00,,---,0.02,VWS V14.01,2013-07-23 15:10:00,
2013-07-23 11:15:00,76.4,75.5,29.63,WNW,284,0.0,4.0,97,0.00,,---,0.02,VWS V14.01,2013-07-23 15:15:00,
2013-07-23 11:20:00,76.5,75.3,29.63,West,275,0.0,3.0,96,0.00,,---,0.02,VWS V14.01,2013-07-23 15:20:00,
2013-07-23 11:25:00,76.4,74.9,29.63,SW,231,0.0,4.0,95,0.00,,---,0.02,VWS V14.01,2013-07-23 15:25:00,
2013-07-23 11:30:00,76.8,75.3,29.62,SW,231,0.0,1.0,95,0.00,,---,0.02,VWS V14.01,2013-07-23 15:30:00,
2013-07-23 11:35:00,76.9,75.1,29.62,WSW,252,2.0,2.0,94,0.00,,---,0.02,VWS V14.01,2013-07-23 15:35:00,
2013-07-23 11:40:00,76.8,74.6,29.62,WSW,237,0.0,4.0,93,0.00,,---,0.02,VWS V14.01,2013-07-23 15:40:00,
2013-07-23 11:45:00,77.0,74.8,29.62,NNW,327,0.0,3.0,93,0.00,,---,0.02,VWS V14.01,2013-07-23 15:45:00,
2013-07-23 11:50:00,77.4,75.5,29.61,NNW,327,0.0,1.0,94,0.00,,---,0.02,VWS V14.01,2013-07-23 15:50:00,
2013-07-23 11:55:00,77.6,75.4,29.61,North,358,0.0,3.0,93,0.00,,---,0.02,VWS V14.01,2013-07-23 15:55:00,
2013-07-23 12:00:00,77.7,74.9,29.61,WNW,296,1.0,6.0,91,0.00,,---,0.02,VWS V14.01,2013-07-23 16:00:00,
2013-07-23 12:05:00,77.7,74.9,29.61,WNW,284,0.0,3.0,91,0.00,,---,0.02,VWS V14.01,2013-07-23 16:05:00,
2013-07-23 12:10:00,77.8,75.0,29.61,WNW,284,0.0,1.0,91,0.00,,---,0.02,VWS V14.01,2013-07-23 16:10:00,
2013-07-23 12:15:00,78.2,76.0,29.60,WNW,284,0.0,1.0,93,0.00,,---,0.02,VWS V14.01,2013-07-23 16:15:00,
2013-07-23 12:20:00,78.6,76.1,29.60,ESE,114,0.0,3.0,92,0.00,,---,0.02,VWS V14.01,2013-07-23 16:20:00,
2013-07-23 12:25:00,79.3,76.4,29.59,SSW,194,0.0,9.0,91,0.00,,---,0.02,VWS V14.01,2013-07-23 16:25:00,
2013-07-23 12:30:00,80.0,76.8,29.58,WNW,288,0.0,2.0,90,0.00,,---,0.02,VWS V14.01,2013-07-23 16:30:00,
2013-07-23 12:35:00,80.5,76.3,29.58,NNW,348,1.0,4.0,87,0.00,,---,0.02,VWS V14.01,2013-07-23 16:35:00,
2013-07-23 12:40:00,81.0,76.8,29.58,SE,142,0.0,6.0,87,0.00,,---,0.02,VWS V14.01,2013-07-23 16:40:00,
2013-07-23 12:45:00,81.4,76.8,29.57,West,271,0.0,5.0,86,0.00,,---,0.02,VWS V14.01,2013-07-23 16:45:00,
2013-07-23 12:50:00,81.5,76.9,29.57,SW,215,0.0,6.0,86,0.00,,---,0.02,VWS V14.01,2013-07-23 16:50:00,
2013-07-23 12:55:00,81.7,76.8,29.57,West,281,0.0,3.0,85,0.00,,---,0.02,VWS V14.01,2013-07-23 16:55:00,
2013-07-23 13:00:00,81.7,76.8,29.56,SW,224,0.0,5.0,85,0.00,,---,0.02,VWS V14.01,2013-07-23 17:00:00,
2013-07-23 13:05:00,81.3,76.0,29.57,SW,231,0.0,6.0,84,0.00,,---,0.02,VWS V14.01,2013-07-23 17:05:00,
2013-07-23 13:10:00,80.5,75.9,29.57,WNW,287,1.0,5.0,86,0.00,,---,0.02,VWS V14.01,2013-07-23 17:10:00,
2013-07-23 13:15:00,79.0,74.8,29.57,WNW,291,0.0,5.0,87,0.00,,---,0.02,VWS V14.01,2013-07-23 17:15:00,
2013-07-23 13:20:00,77.5,73.7,29.59,North,350,4.0,11.0,88,0.00,,---,0.02,VWS V14.01,2013-07-23 17:20:00,
2013-07-23 13:25:00,76.1,73.3,29.59,South,186,0.0,6.0,91,0.00,,---,0.02,VWS V14.01,2013-07-23 17:25:00,
2013-07-23 13:30:00,75.5,73.0,29.59,SW,229,0.0,3.0,92,0.00,,---,0.02,VWS V14.01,2013-07-23 17:30:00,
2013-07-23 13:35:00,75.2,73.0,29.59,NNE,21,0.0,4.0,93,0.00,,---,0.02,VWS V14.01,2013-07-23 17:35:00,
2013-07-23 13:40:00,75.0,73.2,29.58,NNE,19,0.0,4.0,94,0.00,,---,0.02,VWS V14.01,2013-07-23 17:40:00,
2013-07-23 13:45:00,74.9,73.1,29.58,ENE,59,0.0,1.0,94,0.00,,---,0.02,VWS V14.01,2013-07-23 17:45:00,
2013-07-23 13:50:00,74.8,73.0,29.58,ENE,59,0.0,1.0,94,0.00,,---,0.02,VWS V14.01,2013-07-23 17:50:00,
2013-07-23 13:55:00,74.6,73.1,29.58,NNW,331,2.0,2.0,95,0.00,,---,0.02,VWS V14.01,2013-07-23 17:55:00,
2013-07-23 14:00:00,74.5,73.0,29.58,ENE,67,0.0,2.0,95,0.00,,---,0.02,VWS V14.01,2013-07-23 18:00:00,
2013-07-23 14:05:00,74.3,72.8,29.58,ENE,67,0.0,1.0,95,0.00,,---,0.02,VWS V14.01,2013-07-23 18:05:00,
2013-07-23 14:10:00,74.2,72.7,29.58,ENE,67,0.0,1.0,95,0.00,,---,0.02,VWS V14.01,2013-07-23 18:10:00,
2013-07-23 14:15:00,74.1,72.6,29.58,ENE,71,0.0,1.0,95,0.00,,---,0.02,VWS V14.01,2013-07-23 18:15:00,
2013-07-23 14:20:00,74.0,72.5,29.57,ENE,71,0.0,1.0,95,0.00,,---,0.02,VWS V14.01,2013-07-23 18:20:00,
2013-07-23 14:25:00,74.0,72.5,29.57,North,8,0.0,1.0,95,0.00,,---,0.02,VWS V14.01,2013-07-23 18:25:00,
2013-07-23 14:30:00,74.2,72.7,29.57,East,87,0.0,3.0,95,0.00,,---,0.02,VWS V14.01,2013-07-23 18:30:00,
2013-07-23 14:35:00,74.6,73.4,29.57,North,4,0.0,1.0,96,0.00,,---,0.02,VWS V14.01,2013-07-23 18:35:00,
2013-07-23 14:40:00,74.9,73.7,29.57,South,181,0.0,1.0,96,0.00,,---,0.02,VWS V14.01,2013-07-23 18:40:00,
2013-07-23 14:45:00,75.2,74.0,29.57,South,169,0.0,1.0,96,0.00,,---,0.02,VWS V14.01,2013-07-23 18:45:00,
2013-07-23 14:50:00,75.6,74.4,29.56,WNW,284,0.0,2.0,96,0.00,,---,0.02,VWS V14.01,2013-07-23 18:50:00,
2013-07-23 14:55:00,76.5,75.3,29.56,West,274,0.0,2.0,96,0.00,,---,0.02,VWS V14.01,2013-07-23 18:55:00,
2013-07-23 15:00:00,77.1,75.6,29.56,West,274,0.0,1.0,95,0.00,,---,0.02,VWS V14.01,2013-07-23 19:00:00,
2013-07-23 15:05:00,77.3,75.1,29.56,WSW,254,1.0,3.0,93,0.00,,---,0.02,VWS V14.01,2013-07-23 19:05:00,
2013-07-23 15:10:00,77.9,76.0,29.55,WSW,254,0.0,2.0,94,0.00,,---,0.02,VWS V14.01,2013-07-23 19:10:00,
2013-07-23 15:15:00,78.7,76.5,29.54,SSW,198,1.0,1.0,93,0.00,,---,0.02,VWS V14.01,2013-07-23 19:15:00,
2013-07-23 15:20:00,78.7,75.2,29.55,West,266,1.0,4.0,89,0.00,,---,0.02,VWS V14.01,2013-07-23 19:20:00,
2013-07-23 15:25:00,78.5,75.0,29.54,West,260,0.0,2.0,89,0.00,,---,0.02,VWS V14.01,2013-07-23 19:25:00,
2013-07-23 15:30:00,78.5,74.7,29.55,SW,225,0.0,1.0,88,0.00,,---,0.02,VWS V14.01,2013-07-23 19:30:00,
2013-07-23 15:35:00,78.6,75.4,29.55,SW,225,0.0,1.0,90,0.00,,---,0.02,VWS V14.01,2013-07-23 19:35:00,
2013-07-23 15:40:00,78.3,74.8,29.55,SW,225,0.0,1.0,89,0.00,,---,0.02,VWS V14.01,2013-07-23 19:40:00,
2013-07-23 15:45:00,78.2,75.4,29.56,SW,225,0.0,0.0,91,0.00,,---,0.02,VWS V14.01,2013-07-23 19:45:00,
2013-07-23 15:50:00,77.8,75.3,29.55,SW,225,0.0,1.0,92,0.00,,---,0.02,VWS V14.01,2013-07-23 19:50:00,
2013-07-23 15:55:00,77.6,75.4,29.57,NE,48,0.0,3.0,93,0.00,,---,0.02,VWS V14.01,2013-07-23 19:55:00,
2013-07-23 16:00:00,76.7,73.6,29.57,SSW,194,1.0,5.0,90,0.00,,---,0.02,VWS V14.01,2013-07-23 20:00:00,
2013-07-23 16:05:00,76.0,72.9,29.57,NNW,346,0.0,5.0,90,0.01,,---,0.03,VWS V14.01,2013-07-23 20:05:00,
2013-07-23 16:10:00,75.2,72.4,29.57,WNW,292,0.0,2.0,91,0.01,,---,0.03,VWS V14.01,2013-07-23 20:10:00,
2013-07-23 16:15:00,74.6,71.8,29.57,WNW,292,0.0,1.0,91,0.01,,---,0.03,VWS V14.01,2013-07-23 20:15:00,
2013-07-23 16:20:00,73.9,71.1,29.56,WNW,292,0.0,1.0,91,0.01,,---,0.03,VWS V14.01,2013-07-23 20:20:00,
2013-07-23 16:25:00,73.3,70.8,29.57,WNW,292,0.0,1.0,92,0.01,,---,0.03,VWS V14.01,2013-07-23 20:25:00,
2013-07-23 16:30:00,72.9,70.8,29.57,WNW,298,0.0,2.0,93,0.01,,---,0.03,VWS V14.01,2013-07-23 20:30:00,
2013-07-23 16:35:00,72.7,70.9,29.55,WNW,298,0.0,1.0,94,0.01,,---,0.03,VWS V14.01,2013-07-23 20:35:00,
2013-07-23 16:40:00,72.6,70.8,29.55,WNW,294,0.0,1.0,94,0.02,,---,0.04,VWS V14.01,2013-07-23 20:40:00,
2013-07-23 16:45:00,72.5,71.0,29.55,West,271,0.0,1.0,95,0.63,,---,0.65,VWS V14.01,2013-07-23 20:45:00,
2013-07-23 16:50:00,72.5,71.0,29.55,West,271,0.0,0.0,95,0.63,,---,0.65,VWS V14.01,2013-07-23 20:50:00,
2013-07-23 16:55:00,72.3,70.8,29.54,West,271,0.0,0.0,95,0.63,,---,0.65,VWS V14.01,2013-07-23 20:55:00,
2013-07-23 17:00:00,72.2,70.7,29.55,West,271,0.0,0.0,95,0.64,,---,0.66,VWS V14.01,2013-07-23 21:00:00,
2013-07-23 17:05:00,72.2,70.7,29.55,West,271,0.0,0.0,95,0.64,,---,0.66,VWS V14.01,2013-07-23 21:05:00,
2013-07-23 17:10:00,72.2,71.0,29.55,West,271,0.0,0.0,96,0.63,,---,0.66,VWS V14.01,2013-07-23 21:10:00,
2013-07-23 17:15:00,72.2,71.0,29.55,West,271,0.0,1.0,96,0.63,,---,0.66,VWS V14.01,2013-07-23 21:15:00,
2013-07-23 17:20:00,72.4,71.2,29.55,West,271,0.0,1.0,96,0.63,,---,0.66,VWS V14.01,2013-07-23 21:20:00,
2013-07-23 17:25:00,72.6,71.4,29.54,West,271,0.0,2.0,96,0.63,,---,0.66,VWS V14.01,2013-07-23 21:25:00,
2013-07-23 17:30:00,72.5,71.3,29.55,West,271,0.0,1.0,96,0.63,,---,0.66,VWS V14.01,2013-07-23 21:30:00,
2013-07-23 17:35:00,72.7,71.5,29.55,West,271,0.0,0.0,96,0.63,,---,0.66,VWS V14.01,2013-07-23 21:35:00,
2013-07-23 17:40:00,72.5,71.3,29.55,NW,307,0.0,1.0,96,0.63,,---,0.66,VWS V14.01,2013-07-23 21:40:00,
2013-07-23 17:45:00,72.4,71.2,29.55,NW,307,1.0,1.0,96,0.62,,---,0.66,VWS V14.01,2013-07-23 21:45:00,
2013-07-23 17:50:00,72.4,71.2,29.55,NW,307,0.0,1.0,96,0.01,,---,0.66,VWS V14.01,2013-07-23 21:50:00,
2013-07-23 17:55:00,72.5,71.3,29.55,NW,307,0.0,0.0,96,0.01,,---,0.66,VWS V14.01,2013-07-23 21:55:00,
2013-07-23 18:00:00,72.5,71.3,29.56,NW,307,0.0,0.0,96,0.01,,---,0.66,VWS V14.01,2013-07-23 22:00:00,
2013-07-23 18:05:00,72.4,71.2,29.56,NW,307,0.0,1.0,96,0.00,,---,0.66,VWS V14.01,2013-07-23 22:05:00,
2013-07-23 18:10:00,72.3,71.1,29.57,NW,307,0.0,1.0,96,0.00,,---,0.66,VWS V14.01,2013-07-23 22:10:00,
2013-07-23 18:15:00,72.3,71.1,29.57,NW,307,0.0,0.0,96,0.00,,---,0.66,VWS V14.01,2013-07-23 22:15:00,
2013-07-23 18:20:00,72.3,71.4,29.56,NW,307,0.0,0.0,97,0.00,,---,0.66,VWS V14.01,2013-07-23 22:20:00,
2013-07-23 18:25:00,72.4,71.5,29.57,NW,307,0.0,0.0,97,0.00,,---,0.66,VWS V14.01,2013-07-23 22:25:00,
2013-07-23 18:30:00,72.4,71.5,29.57,NW,307,0.0,0.0,97,0.00,,---,0.66,VWS V14.01,2013-07-23 22:30:00,
2013-07-23 18:35:00,72.5,71.6,29.57,NW,307,0.0,1.0,97,0.00,,---,0.66,VWS V14.01,2013-07-23 22:35:00,
2013-07-23 18:40:00,72.5,71.6,29.57,NW,307,0.0,1.0,97,0.00,,---,0.66,VWS V14.01,2013-07-23 22:40:00,
2013-07-23 18:45:00,72.6,71.7,29.57,WNW,298,0.0,1.0,97,0.00,,---,0.66,VWS V14.01,2013-07-23 22:45:00,
2013-07-23 18:50:00,72.6,71.7,29.57,WNW,298,0.0,0.0,97,0.00,,---,0.66,VWS V14.01,2013-07-23 22:50:00,
2013-07-23 18:55:00,72.5,71.6,29.57,WNW,298,0.0,0.0,97,0.00,,---,0.66,VWS V14.01,2013-07-23 22:55:00,
2013-07-23 19:00:00,72.5,71.6,29.58,WNW,298,0.0,0.0,97,0.00,,---,0.66,VWS V14.01,2013-07-23 23:00:00,
2013-07-23 19:05:00,72.6,71.7,29.58,WNW,298,0.0,0.0,97,0.00,,---,0.66,VWS V14.01,2013-07-23 23:05:00,
2013-07-23 19:10:00,72.5,71.6,29.58,WNW,298,0.0,0.0,97,0.00,,---,0.66,VWS V14.01,2013-07-23 23:10:00,
2013-07-23 19:15:00,72.6,71.7,29.58,WNW,298,0.0,0.0,97,0.00,,---,0.66,VWS V14.01,2013-07-23 23:15:00,
2013-07-23 19:20:00,72.6,71.7,29.58,WNW,298,0.0,0.0,97,0.00,,---,0.66,VWS V14.01,2013-07-23 23:20:00,
2013-07-23 19:25:00,72.5,71.6,29.58,WNW,298,0.0,0.0,97,0.00,,---,0.66,VWS V14.01,2013-07-23 23:25:00,
2013-07-23 19:30:00,72.4,71.5,29.59,WNW,298,0.0,1.0,97,0.00,,---,0.66,VWS V14.01,2013-07-23 23:30:00,
2013-07-23 19:35:00,72.3,71.4,29.58,WNW,298,0.0,1.0,97,0.00,,---,0.66,VWS V14.01,2013-07-23 23:35:00,
2013-07-23 19:40:00,72.3,71.4,29.59,WNW,298,0.0,0.0,97,0.00,,---,0.66,VWS V14.01,2013-07-23 23:40:00,
2013-07-23 19:45:00,72.3,71.4,29.59,WNW,298,0.0,0.0,97,0.00,,---,0.66,VWS V14.01,2013-07-23 23:45:00,
2013-07-23 19:50:00,72.3,71.4,29.59,WNW,298,0.0,0.0,97,0.00,,---,0.66,VWS V14.01,2013-07-23 23:50:00,
2013-07-23 19:55:00,72.4,71.5,29.59,WNW,298,0.0,0.0,97,0.00,,---,0.66,VWS V14.01,2013-07-23 23:55:00,
2013-07-23 20:00:00,72.3,71.4,29.60,WNW,298,0.0,0.0,97,0.00,,---,0.66,VWS V14.01,2013-07-24 00:00:00,
2013-07-23 20:05:00,72.3,71.4,29.59,WNW,298,0.0,0.0,97,0.00,,---,0.66,VWS V14.01,2013-07-24 00:05:00,
2013-07-23 20:10:00,72.2,71.3,29.59,WNW,298,0.0,0.0,97,0.00,,---,0.66,VWS V14.01,2013-07-24 00:10:00,
2013-07-23 20:15:00,72.2,71.3,29.59,WNW,298,0.0,0.0,97,0.00,,---,0.66,VWS V14.01,2013-07-24 00:15:00,
2013-07-23 20:20:00,72.2,71.3,29.59,WNW,298,0.0,0.0,97,0.00,,---,0.66,VWS V14.01,2013-07-24 00:20:00,
2013-07-23 20:25:00,72.2,71.3,29.59,WNW,298,0.0,0.0,97,0.00,,---,0.66,VWS V14.01,2013-07-24 00:25:00,
2013-07-23 20:30:00,72.1,71.2,29.60,WNW,298,0.0,0.0,97,0.00,,---,0.66,VWS V14.01,2013-07-24 00:30:00,
2013-07-23 20:35:00,72.2,71.3,29.59,WNW,298,0.0,0.0,97,0.00,,---,0.66,VWS V14.01,2013-07-24 00:35:00,
2013-07-23 20:40:00,72.2,71.3,29.59,WNW,298,0.0,0.0,97,0.00,,---,0.66,VWS V14.01,2013-07-24 00:40:00,
2013-07-23 20:45:00,72.2,71.3,29.59,WNW,298,0.0,0.0,97,0.00,,---,0.66,VWS V14.01,2013-07-24 00:45:00,
2013-07-23 20:50:00,72.2,71.3,29.59,WNW,298,0.0,0.0,97,0.00,,---,0.66,VWS V14.01,2013-07-24 00:50:00,
2013-07-23 20:55:00,72.1,71.2,29.59,WNW,298,0.0,0.0,97,0.00,,---,0.66,VWS V14.01,2013-07-24 00:55:00,
2013-07-23 21:00:00,72.1,71.2,29.59,WNW,298,0.0,0.0,97,0.00,,---,0.66,VWS V14.01,2013-07-24 01:00:00,
2013-07-23 21:05:00,72.1,71.2,29.59,WNW,298,0.0,0.0,97,0.00,,---,0.66,VWS V14.01,2013-07-24 01:05:00,
2013-07-23 21:10:00,72.1,71.2,29.59,WNW,298,0.0,0.0,97,0.00,,---,0.66,VWS V14.01,2013-07-24 01:10:00,
2013-07-23 21:15:00,72.1,71.2,29.60,WNW,298,0.0,0.0,97,0.00,,---,0.66,VWS V14.01,2013-07-24 01:15:00,
2013-07-23 21:20:00,72.1,71.2,29.60,WNW,298,0.0,0.0,97,0.00,,---,0.66,VWS V14.01,2013-07-24 01:20:00,
2013-07-23 21:25:00,72.1,71.2,29.60,WNW,298,0.0,1.0,97,0.00,,---,0.66,VWS V14.01,2013-07-24 01:25:00,
2013-07-23 21:30:00,72.1,71.2,29.59,WNW,298,0.0,1.0,97,0.00,,---,0.66,VWS V14.01,2013-07-24 01:30:00,
2013-07-23 21:35:00,72.1,71.2,29.60,WNW,298,0.0,0.0,97,0.00,,---,0.66,VWS V14.01,2013-07-24 01:35:00,
2013-07-23 21:40:00,72.1,71.2,29.60,WNW,298,0.0,0.0,97,0.00,,---,0.66,VWS V14.01,2013-07-24 01:40:00,
2013-07-23 21:45:00,72.2,71.3,29.60,WNW,298,0.0,0.0,97,0.00,,---,0.66,VWS V14.01,2013-07-24 01:45:00,
2013-07-23 21:50:00,72.2,71.3,29.60,WNW,298,0.0,0.0,97,0.00,,---,0.66,VWS V14.01,2013-07-24 01:50:00,
2013-07-23 21:55:00,72.2,71.3,29.60,WNW,298,0.0,0.0,97,0.00,,---,0.66,VWS V14.01,2013-07-24 01:55:00,
2013-07-23 22:00:00,72.2,71.3,29.60,WNW,298,0.0,0.0,97,0.00,,---,0.66,VWS V14.01,2013-07-24 02:00:00,
2013-07-23 22:05:00,72.1,71.2,29.60,WNW,298,0.0,0.0,97,0.00,,---,0.66,VWS V14.01,2013-07-24 02:05:00,
2013-07-23 22:10:00,72.1,71.2,29.60,WNW,298,0.0,0.0,97,0.00,,---,0.66,VWS V14.01,2013-07-24 02:10:00,
2013-07-23 22:15:00,72.0,71.1,29.60,WNW,298,0.0,0.0,97,0.00,,---,0.66,VWS V14.01,2013-07-24 02:15:00,
2013-07-23 22:20:00,71.9,71.0,29.60,WNW,298,0.0,0.0,97,0.00,,---,0.66,VWS V14.01,2013-07-24 02:20:00,
2013-07-23 22:25:00,71.9,71.0,29.60,WNW,298,0.0,0.0,97,0.00,,---,0.66,VWS V14.01,2013-07-24 02:25:00,
2013-07-23 22:30:00,71.9,71.3,29.60,WNW,298,0.0,0.0,98,0.00,,---,0.66,VWS V14.01,2013-07-24 02:30:00,
2013-07-23 22:35:00,71.8,70.9,29.60,WNW,298,0.0,0.0,97,0.00,,---,0.66,VWS V14.01,2013-07-24 02:35:00,
2013-07-23 22:40:00,71.7,70.8,29.60,WNW,298,0.0,0.0,97,0.00,,---,0.66,VWS V14.01,2013-07-24 02:40:00,
2013-07-23 22:45:00,71.7,70.8,29.60,WNW,298,0.0,0.0,97,0.00,,---,0.66,VWS V14.01,2013-07-24 02:45:00,
2013-07-23 22:50:00,71.6,70.7,29.60,WNW,298,0.0,0.0,97,0.00,,---,0.66,VWS V14.01,2013-07-24 02:50:00,
2013-07-23 22:55:00,71.5,70.6,29.60,WNW,298,0.0,0.0,97,0.00,,---,0.66,VWS V14.01,2013-07-24 02:55:00,
2013-07-23 23:00:00,71.5,70.6,29.60,WNW,298,0.0,0.0,97,0.00,,---,0.66,VWS V14.01,2013-07-24 03:00:00,
2013-07-23 23:05:00,71.4,70.5,29.60,WNW,298,0.0,0.0,97,0.00,,---,0.66,VWS V14.01,2013-07-24 03:05:00,
2013-07-23 23:10:00,71.3,70.4,29.60,WNW,298,0.0,0.0,97,0.00,,---,0.66,VWS V14.01,2013-07-24 03:10:00,
2013-07-23 23:15:00,71.2,70.3,29.60,WNW,298,0.0,0.0,97,0.00,,---,0.66,VWS V14.01,2013-07-24 03:15:00,
2013-07-23 23:20:00,71.1,70.2,29.60,WNW,298,0.0,0.0,97,0.00,,---,0.66,VWS V14.01,2013-07-24 03:20:00,
2013-07-23 23:25:00,71.0,70.1,29.61,WNW,298,0.0,0.0,97,0.00,,---,0.66,VWS V14.01,2013-07-24 03:25:00,
2013-07-23 23:30:00,71.0,70.1,29.60,WNW,298,0.0,0.0,97,0.00,,---,0.66,VWS V14.01,2013-07-24 03:30:00,
2013-07-23 23:35:00,70.9,70.0,29.60,WNW,298,0.0,0.0,97,0.00,,---,0.66,VWS V14.01,2013-07-24 03:35:00,
2013-07-23 23:40:00,70.8,69.9,29.60,WNW,298,0.0,0.0,97,0.00,,---,0.66,VWS V14.01,2013-07-24 03:40:00,
2013-07-23 23:45:00,70.8,69.9,29.60,WNW,298,0.0,0.0,97,0.00,,---,0.66,VWS V14.01,2013-07-24 03:45:00,
2013-07-23 23:50:00,70.7,69.8,29.60,WNW,298,0.0,0.0,97,0.00,,---,0.66,VWS V14.01,2013-07-24 03:50:00,
2013-07-23 23:55:00,70.7,70.1,29.60,WNW,298,0.0,0.0,98,0.00,,---,0.66,VWS V14.01,2013-07-24 03:55:00,